Year,Month,Day,Hour,Minute,Value (Times are PST for temperature in C)
2021,04,17,00,00,11.80
2021,04,17,00,01,11.80
2021,04,17,00,02,11.80
2021,04,17,00,03,11.90
2021,04,17,00,04,12.00
2021,04,17,00,05,12.10
2021,04,17,00,06,12.20
2021,04,17,00,07,12.30
2021,04,17,00,08,12.30
2021,04,17,00,09,12.40
2021,04,17,00,10,12.50
2021,04,17,00,11,12.50
2021,04,17,00,12,12.70
2021,04,17,00,13,12.80
2021,04,17,00,14,13.00
2021,04,17,00,15,13.10
2021,04,17,00,16,13.20
2021,04,17,00,17,13.30
2021,04,17,00,18,13.30
2021,04,17,00,19,13.40
2021,04,17,00,20,13.50
2021,04,17,00,21,13.50
2021,04,17,00,22,13.60
2021,04,17,00,23,13.60
2021,04,17,00,24,13.60
2021,04,17,00,25,13.70
2021,04,17,00,26,13.70
2021,04,17,00,27,13.70
2021,04,17,00,28,13.80
2021,04,17,00,29,13.80
2021,04,17,00,30,13.80
2021,04,17,00,31,13.80
2021,04,17,00,32,13.80
2021,04,17,00,33,13.80
2021,04,17,00,34,13.70
2021,04,17,00,35,13.70
2021,04,17,00,36,13.60
2021,04,17,00,37,13.60
2021,04,17,00,38,13.50
2021,04,17,00,39,13.50
2021,04,17,00,40,13.40
2021,04,17,00,41,13.30
2021,04,17,00,42,13.30
2021,04,17,00,43,13.20
2021,04,17,00,44,13.10
2021,04,17,00,45,13.00
2021,04,17,00,46,12.90
2021,04,17,00,47,12.80
2021,04,17,00,48,12.70
2021,04,17,00,49,12.60
2021,04,17,00,50,12.50
2021,04,17,00,51,12.40
2021,04,17,00,52,12.30
2021,04,17,00,53,12.30
2021,04,17,00,54,12.20
2021,04,17,00,55,12.20
2021,04,17,00,56,12.10
2021,04,17,00,57,12.10
2021,04,17,00,58,12.10
2021,04,17,00,59,12.10
2021,04,17,01,00,12.20
2021,04,17,01,01,12.30
2021,04,17,01,02,12.40
2021,04,17,01,03,12.50
2021,04,17,01,04,12.60
2021,04,17,01,05,12.70
2021,04,17,01,06,12.80
2021,04,17,01,07,12.90
2021,04,17,01,08,13.00
2021,04,17,01,09,13.10
2021,04,17,01,10,13.10
2021,04,17,01,11,13.10
2021,04,17,01,12,13.10
2021,04,17,01,13,13.10
2021,04,17,01,14,13.00
2021,04,17,01,15,13.00
2021,04,17,01,16,13.00
2021,04,17,01,17,13.00
2021,04,17,01,18,12.90
2021,04,17,01,19,12.80
2021,04,17,01,20,12.70
2021,04,17,01,21,12.50
2021,04,17,01,22,12.40
2021,04,17,01,23,12.20
2021,04,17,01,24,12.10
2021,04,17,01,25,11.90
2021,04,17,01,26,11.80
2021,04,17,01,27,11.70
2021,04,17,01,28,11.60
2021,04,17,01,29,11.50
2021,04,17,01,30,11.40
2021,04,17,01,31,11.40
2021,04,17,01,32,11.30
2021,04,17,01,33,11.20
2021,04,17,01,34,11.20
2021,04,17,01,35,11.20
2021,04,17,01,36,11.20
2021,04,17,01,37,11.20
2021,04,17,01,38,11.20
2021,04,17,01,39,11.10
2021,04,17,01,40,11.10
2021,04,17,01,41,11.10
2021,04,17,01,42,11.10
2021,04,17,01,43,11.10
2021,04,17,01,44,11.10
2021,04,17,01,45,11.20
2021,04,17,01,46,11.20
2021,04,17,01,47,11.20
2021,04,17,01,48,11.30
2021,04,17,01,49,11.40
2021,04,17,01,50,11.50
2021,04,17,01,51,11.50
2021,04,17,01,52,11.40
2021,04,17,01,53,11.40
2021,04,17,01,54,11.30
2021,04,17,01,55,11.20
2021,04,17,01,56,11.20
2021,04,17,01,57,11.10
2021,04,17,01,58,11.10
2021,04,17,01,59,11.00
2021,04,17,02,00,11.00
2021,04,17,02,01,11.00
2021,04,17,02,02,10.90
2021,04,17,02,03,10.90
2021,04,17,02,04,10.90
2021,04,17,02,05,10.90
2021,04,17,02,06,10.90
2021,04,17,02,07,10.90
2021,04,17,02,08,10.90
2021,04,17,02,09,10.90
2021,04,17,02,10,10.80
2021,04,17,02,11,10.80
2021,04,17,02,12,10.80
2021,04,17,02,13,10.80
2021,04,17,02,14,10.80
2021,04,17,02,15,10.80
2021,04,17,02,16,10.70
2021,04,17,02,17,10.70
2021,04,17,02,18,10.70
2021,04,17,02,19,10.60
2021,04,17,02,20,10.60
2021,04,17,02,21,10.60
2021,04,17,02,22,10.50
2021,04,17,02,23,10.40
2021,04,17,02,24,10.40
2021,04,17,02,25,10.30
2021,04,17,02,26,10.30
2021,04,17,02,27,10.30
2021,04,17,02,28,10.30
2021,04,17,02,29,10.30
2021,04,17,02,30,10.30
2021,04,17,02,31,10.30
2021,04,17,02,32,10.30
2021,04,17,02,33,10.30
2021,04,17,02,34,10.30
2021,04,17,02,35,10.30
2021,04,17,02,36,10.40
2021,04,17,02,37,10.40
2021,04,17,02,38,10.40
2021,04,17,02,39,10.40
2021,04,17,02,40,10.40
2021,04,17,02,41,10.30
2021,04,17,02,42,10.20
2021,04,17,02,43,10.10
2021,04,17,02,44,10.00
2021,04,17,02,45,9.90
2021,04,17,02,46,9.80
2021,04,17,02,47,9.80
2021,04,17,02,48,9.80
2021,04,17,02,49,9.80
2021,04,17,02,50,9.80
2021,04,17,02,51,9.80
2021,04,17,02,52,9.80
2021,04,17,02,53,9.90
2021,04,17,02,54,10.00
2021,04,17,02,55,10.00
2021,04,17,02,56,10.00
2021,04,17,02,57,10.10
2021,04,17,02,58,10.20
2021,04,17,02,59,10.30
2021,04,17,03,00,10.40
2021,04,17,03,01,10.50
2021,04,17,03,02,10.60
2021,04,17,03,03,10.70
2021,04,17,03,04,10.80
2021,04,17,03,05,10.90
2021,04,17,03,06,11.00
2021,04,17,03,07,11.10
2021,04,17,03,08,11.10
2021,04,17,03,09,11.20
2021,04,17,03,10,11.20
2021,04,17,03,11,11.20
2021,04,17,03,12,11.20
2021,04,17,03,13,11.20
2021,04,17,03,14,11.20
2021,04,17,03,15,11.20
2021,04,17,03,16,11.20
2021,04,17,03,17,11.20
2021,04,17,03,18,11.10
2021,04,17,03,19,11.10
2021,04,17,03,20,11.00
2021,04,17,03,21,11.00
2021,04,17,03,22,11.00
2021,04,17,03,23,10.90
2021,04,17,03,24,10.90
2021,04,17,03,25,10.90
2021,04,17,03,26,10.90
2021,04,17,03,27,10.90
2021,04,17,03,28,10.80
2021,04,17,03,29,10.80
2021,04,17,03,30,10.70
2021,04,17,03,31,10.70
2021,04,17,03,32,10.60
2021,04,17,03,33,10.60
2021,04,17,03,34,10.50
2021,04,17,03,35,10.50
2021,04,17,03,36,10.40
2021,04,17,03,37,10.40
2021,04,17,03,38,10.40
2021,04,17,03,39,10.30
2021,04,17,03,40,10.30
2021,04,17,03,41,10.30
2021,04,17,03,42,10.20
2021,04,17,03,43,10.20
2021,04,17,03,44,10.20
2021,04,17,03,45,10.20
2021,04,17,03,46,10.10
2021,04,17,03,47,10.10
2021,04,17,03,48,10.10
2021,04,17,03,49,10.10
2021,04,17,03,50,10.10
2021,04,17,03,51,10.00
2021,04,17,03,52,10.00
2021,04,17,03,53,10.00
2021,04,17,03,54,10.00
2021,04,17,03,55,10.00
2021,04,17,03,56,10.00
2021,04,17,03,57,10.00
2021,04,17,03,58,10.00
2021,04,17,03,59,10.00
2021,04,17,04,00,9.90
2021,04,17,04,01,9.90
2021,04,17,04,02,9.90
2021,04,17,04,03,9.90
2021,04,17,04,04,9.90
2021,04,17,04,05,9.90
2021,04,17,04,06,9.90
2021,04,17,04,07,9.90
2021,04,17,04,08,9.80
2021,04,17,04,09,9.80
2021,04,17,04,10,9.80
2021,04,17,04,11,9.80
2021,04,17,04,12,9.80
2021,04,17,04,13,9.70
2021,04,17,04,14,9.70
2021,04,17,04,15,9.70
2021,04,17,04,16,9.60
2021,04,17,04,17,9.60
2021,04,17,04,18,9.60
2021,04,17,04,19,9.60
2021,04,17,04,20,9.50
2021,04,17,04,21,9.50
2021,04,17,04,22,9.50
2021,04,17,04,23,9.50
2021,04,17,04,24,9.50
2021,04,17,04,25,9.50
2021,04,17,04,26,9.50
2021,04,17,04,27,9.50
2021,04,17,04,28,9.40
2021,04,17,04,29,9.40
2021,04,17,04,30,9.40
2021,04,17,04,31,9.40
2021,04,17,04,32,9.40
2021,04,17,04,33,9.50
2021,04,17,04,34,9.50
2021,04,17,04,35,9.50
2021,04,17,04,36,9.50
2021,04,17,04,37,9.50
2021,04,17,04,38,9.50
2021,04,17,04,39,9.50
2021,04,17,04,40,9.50
2021,04,17,04,41,9.50
2021,04,17,04,42,9.40
2021,04,17,04,43,9.40
2021,04,17,04,44,9.40
2021,04,17,04,45,9.40
2021,04,17,04,46,9.40
2021,04,17,04,47,9.40
2021,04,17,04,48,9.40
2021,04,17,04,49,9.40
2021,04,17,04,50,9.40
2021,04,17,04,51,9.40
2021,04,17,04,52,9.40
2021,04,17,04,53,9.30
2021,04,17,04,54,9.30
2021,04,17,04,55,9.30
2021,04,17,04,56,9.30
2021,04,17,04,57,9.20
2021,04,17,04,58,9.20
2021,04,17,04,59,9.10
2021,04,17,05,00,9.10
2021,04,17,05,01,9.10
2021,04,17,05,02,9.00
2021,04,17,05,03,9.00
2021,04,17,05,04,9.00
2021,04,17,05,05,8.90
2021,04,17,05,06,8.90
2021,04,17,05,07,8.90
2021,04,17,05,08,8.90
2021,04,17,05,09,8.90
2021,04,17,05,10,8.90
2021,04,17,05,11,8.90
2021,04,17,05,12,8.90
2021,04,17,05,13,8.90
2021,04,17,05,14,8.90
2021,04,17,05,15,8.90
2021,04,17,05,16,8.90
2021,04,17,05,17,8.90
2021,04,17,05,18,8.90
2021,04,17,05,19,8.90
2021,04,17,05,20,8.90
2021,04,17,05,21,8.90
2021,04,17,05,22,8.90
2021,04,17,05,23,9.00
2021,04,17,05,24,9.00
2021,04,17,05,25,9.00
2021,04,17,05,26,9.00
2021,04,17,05,27,9.00
2021,04,17,05,28,9.00
2021,04,17,05,29,9.10
2021,04,17,05,30,9.10
2021,04,17,05,31,9.10
2021,04,17,05,32,9.10
2021,04,17,05,33,9.10
2021,04,17,05,34,9.10
2021,04,17,05,35,9.10
2021,04,17,05,36,9.10
2021,04,17,05,37,9.10
2021,04,17,05,38,9.10
2021,04,17,05,39,9.10
2021,04,17,05,40,9.00
2021,04,17,05,41,8.90
2021,04,17,05,42,8.90
2021,04,17,05,43,8.90
2021,04,17,05,44,8.80
2021,04,17,05,45,8.80
2021,04,17,05,46,8.80
2021,04,17,05,47,8.80
2021,04,17,05,48,8.80
2021,04,17,05,49,8.80
2021,04,17,05,50,8.80
2021,04,17,05,51,8.80
2021,04,17,05,52,8.80
2021,04,17,05,53,8.80
2021,04,17,05,54,8.70
2021,04,17,05,55,8.70
2021,04,17,05,56,8.70
2021,04,17,05,57,8.70
2021,04,17,05,58,8.60
2021,04,17,05,59,8.60
2021,04,17,06,00,8.50
2021,04,17,06,01,8.50
2021,04,17,06,02,8.40
2021,04,17,06,03,8.40
2021,04,17,06,04,8.40
2021,04,17,06,05,8.40
2021,04,17,06,06,8.40
2021,04,17,06,07,8.40
2021,04,17,06,08,8.40
2021,04,17,06,09,8.40
2021,04,17,06,10,8.40
2021,04,17,06,11,8.40
2021,04,17,06,12,8.40
2021,04,17,06,13,8.40
2021,04,17,06,14,8.40
2021,04,17,06,15,8.40
2021,04,17,06,16,8.40
2021,04,17,06,17,8.40
2021,04,17,06,18,8.40
2021,04,17,06,19,8.40
2021,04,17,06,20,8.40
2021,04,17,06,21,8.40
2021,04,17,06,22,8.40
2021,04,17,06,23,8.40
2021,04,17,06,24,8.30
2021,04,17,06,25,8.30
2021,04,17,06,26,8.30
2021,04,17,06,27,8.30
2021,04,17,06,28,8.30
2021,04,17,06,29,8.30
2021,04,17,06,30,8.30
2021,04,17,06,31,8.30
2021,04,17,06,32,8.20
2021,04,17,06,33,8.20
2021,04,17,06,34,8.20
2021,04,17,06,35,8.20
2021,04,17,06,36,8.20
2021,04,17,06,37,8.20
2021,04,17,06,38,8.30
2021,04,17,06,39,8.30
2021,04,17,06,40,8.30
2021,04,17,06,41,8.30
2021,04,17,06,42,8.30
2021,04,17,06,43,8.30
2021,04,17,06,44,8.30
2021,04,17,06,45,8.30
2021,04,17,06,46,8.30
2021,04,17,06,47,8.30
2021,04,17,06,48,8.30
2021,04,17,06,49,8.30
2021,04,17,06,50,8.30
2021,04,17,06,51,8.40
2021,04,17,06,52,8.40
2021,04,17,06,53,8.40
2021,04,17,06,54,8.40
2021,04,17,06,55,8.50
2021,04,17,06,56,8.50
2021,04,17,06,57,8.50
2021,04,17,06,58,8.50
2021,04,17,06,59,8.50
2021,04,17,07,00,8.50
2021,04,17,07,01,8.50
2021,04,17,07,02,8.60
2021,04,17,07,03,8.60
2021,04,17,07,04,8.60
2021,04,17,07,05,8.60
2021,04,17,07,06,8.60
2021,04,17,07,07,8.70
2021,04,17,07,08,8.70
2021,04,17,07,09,8.80
2021,04,17,07,10,8.80
2021,04,17,07,11,8.80
2021,04,17,07,12,8.80
2021,04,17,07,13,8.80
2021,04,17,07,14,8.80
2021,04,17,07,15,8.80
2021,04,17,07,16,8.80
2021,04,17,07,17,8.80
2021,04,17,07,18,8.80
2021,04,17,07,19,8.80
2021,04,17,07,20,8.80
2021,04,17,07,21,8.80
2021,04,17,07,22,8.80
2021,04,17,07,23,8.80
2021,04,17,07,24,8.80
2021,04,17,07,25,8.80
2021,04,17,07,26,8.90
2021,04,17,07,27,8.90
2021,04,17,07,28,8.90
2021,04,17,07,29,9.00
2021,04,17,07,30,9.00
2021,04,17,07,31,9.10
2021,04,17,07,32,9.20
2021,04,17,07,33,9.20
2021,04,17,07,34,9.20
2021,04,17,07,35,9.20
2021,04,17,07,36,9.20
2021,04,17,07,37,9.20
2021,04,17,07,38,9.20
2021,04,17,07,39,9.20
2021,04,17,07,40,9.20
2021,04,17,07,41,9.20
2021,04,17,07,42,9.30
2021,04,17,07,43,9.30
2021,04,17,07,44,9.30
2021,04,17,07,45,9.40
2021,04,17,07,46,9.40
2021,04,17,07,47,9.40
2021,04,17,07,48,9.40
2021,04,17,07,49,9.40
2021,04,17,07,50,9.50
2021,04,17,07,51,9.50
2021,04,17,07,52,9.60
2021,04,17,07,53,9.70
2021,04,17,07,54,9.80
2021,04,17,07,55,9.90
2021,04,17,07,56,10.00
2021,04,17,07,57,10.00
2021,04,17,07,58,10.10
2021,04,17,07,59,10.10
2021,04,17,08,00,10.20
2021,04,17,08,01,10.30
2021,04,17,08,02,10.30
2021,04,17,08,03,10.40
2021,04,17,08,04,10.50
2021,04,17,08,05,10.60
2021,04,17,08,06,10.60
2021,04,17,08,07,10.70
2021,04,17,08,08,10.70
2021,04,17,08,09,10.70
2021,04,17,08,10,10.80
2021,04,17,08,11,10.90
2021,04,17,08,12,10.90
2021,04,17,08,13,11.00
2021,04,17,08,14,11.00
2021,04,17,08,15,11.00
2021,04,17,08,16,11.10
2021,04,17,08,17,11.20
2021,04,17,08,18,11.20
2021,04,17,08,19,11.30
2021,04,17,08,20,11.30
2021,04,17,08,21,11.40
2021,04,17,08,22,11.50
2021,04,17,08,23,11.50
2021,04,17,08,24,11.60
2021,04,17,08,25,11.70
2021,04,17,08,26,11.80
2021,04,17,08,27,11.80
2021,04,17,08,28,11.80
2021,04,17,08,29,11.90
2021,04,17,08,30,11.90
2021,04,17,08,31,12.00
2021,04,17,08,32,12.00
2021,04,17,08,33,12.10
2021,04,17,08,34,12.20
2021,04,17,08,35,12.20
2021,04,17,08,36,12.20
2021,04,17,08,37,12.30
2021,04,17,08,38,12.30
2021,04,17,08,39,12.30
2021,04,17,08,40,12.30
2021,04,17,08,41,12.30
2021,04,17,08,42,12.30
2021,04,17,08,43,12.30
2021,04,17,08,44,12.30
2021,04,17,08,45,12.30
2021,04,17,08,46,12.40
2021,04,17,08,47,12.40
2021,04,17,08,48,12.50
2021,04,17,08,49,12.50
2021,04,17,08,50,12.60
2021,04,17,08,51,12.50
2021,04,17,08,52,12.60
2021,04,17,08,53,12.60
2021,04,17,08,54,12.60
2021,04,17,08,55,12.70
2021,04,17,08,56,12.70
2021,04,17,08,57,12.80
2021,04,17,08,58,12.90
2021,04,17,08,59,13.00
2021,04,17,09,00,13.10
2021,04,17,09,01,13.10
2021,04,17,09,02,13.30
2021,04,17,09,03,13.40
2021,04,17,09,04,13.50
2021,04,17,09,05,13.50
2021,04,17,09,06,13.60
2021,04,17,09,07,13.60
2021,04,17,09,08,13.70
2021,04,17,09,09,13.70
2021,04,17,09,10,13.70
2021,04,17,09,11,13.80
2021,04,17,09,12,13.80
2021,04,17,09,13,13.80
2021,04,17,09,14,13.80
2021,04,17,09,15,13.90
2021,04,17,09,16,13.90
2021,04,17,09,17,14.00
2021,04,17,09,18,14.10
2021,04,17,09,19,14.20
2021,04,17,09,20,14.30
2021,04,17,09,21,14.40
2021,04,17,09,22,14.40
2021,04,17,09,23,14.40
2021,04,17,09,24,14.40
2021,04,17,09,25,14.50
2021,04,17,09,26,14.50
2021,04,17,09,27,14.50
2021,04,17,09,28,14.50
2021,04,17,09,29,14.60
2021,04,17,09,30,14.60
2021,04,17,09,31,14.60
2021,04,17,09,32,14.60
2021,04,17,09,33,14.70
2021,04,17,09,34,14.70
2021,04,17,09,35,14.80
2021,04,17,09,36,14.80
2021,04,17,09,37,14.80
2021,04,17,09,38,14.80
2021,04,17,09,39,14.80
2021,04,17,09,40,14.80
2021,04,17,09,41,14.90
2021,04,17,09,42,14.90
2021,04,17,09,43,14.90
2021,04,17,09,44,15.00
2021,04,17,09,45,15.00
2021,04,17,09,46,15.10
2021,04,17,09,47,15.20
2021,04,17,09,48,15.30
2021,04,17,09,49,15.40
2021,04,17,09,50,15.50
2021,04,17,09,51,15.60
2021,04,17,09,52,15.80
2021,04,17,09,53,15.90
2021,04,17,09,54,16.10
2021,04,17,09,55,16.10
2021,04,17,09,56,16.10
2021,04,17,09,57,16.10
2021,04,17,09,58,16.20
2021,04,17,09,59,16.20
2021,04,17,10,00,16.30
2021,04,17,10,01,16.30
2021,04,17,10,02,16.30
2021,04,17,10,03,16.30
2021,04,17,10,04,16.20
2021,04,17,10,05,16.10
2021,04,17,10,06,16.00
2021,04,17,10,07,16.00
2021,04,17,10,08,15.90
2021,04,17,10,09,15.90
2021,04,17,10,10,15.90
2021,04,17,10,11,15.90
2021,04,17,10,12,15.90
2021,04,17,10,13,15.90
2021,04,17,10,14,15.80
2021,04,17,10,15,15.80
2021,04,17,10,16,15.80
2021,04,17,10,17,15.80
2021,04,17,10,18,15.80
2021,04,17,10,19,15.80
2021,04,17,10,20,15.90
2021,04,17,10,21,15.90
2021,04,17,10,22,16.00
2021,04,17,10,23,16.10
2021,04,17,10,24,16.20
2021,04,17,10,25,16.30
2021,04,17,10,26,16.40
2021,04,17,10,27,16.40
2021,04,17,10,28,16.50
2021,04,17,10,29,16.60
2021,04,17,10,30,16.60
2021,04,17,10,31,16.60
2021,04,17,10,32,16.50
2021,04,17,10,33,16.50
2021,04,17,10,34,16.50
2021,04,17,10,35,16.50
2021,04,17,10,36,16.40
2021,04,17,10,37,16.40
2021,04,17,10,38,16.40
2021,04,17,10,39,16.40
2021,04,17,10,40,16.50
2021,04,17,10,41,16.50
2021,04,17,10,42,16.50
2021,04,17,10,43,16.60
2021,04,17,10,44,16.60
2021,04,17,10,45,16.60
2021,04,17,10,46,16.60
2021,04,17,10,47,16.70
2021,04,17,10,48,16.70
2021,04,17,10,49,16.80
2021,04,17,10,50,16.80
2021,04,17,10,51,16.80
2021,04,17,10,52,16.90
2021,04,17,10,53,16.90
2021,04,17,10,54,16.80
2021,04,17,10,55,16.80
2021,04,17,10,56,16.80
2021,04,17,10,57,16.80
2021,04,17,10,58,16.90
2021,04,17,10,59,17.00
2021,04,17,11,00,17.10
2021,04,17,11,01,17.10
2021,04,17,11,02,17.30
2021,04,17,11,03,17.40
2021,04,17,11,04,17.40
2021,04,17,11,05,17.50
2021,04,17,11,06,17.50
2021,04,17,11,07,17.50
2021,04,17,11,08,17.60
2021,04,17,11,09,17.60
2021,04,17,11,10,17.70
2021,04,17,11,11,17.80
2021,04,17,11,12,17.90
2021,04,17,11,13,17.90
2021,04,17,11,14,17.90
2021,04,17,11,15,18.00
2021,04,17,11,16,18.10
2021,04,17,11,17,18.10
2021,04,17,11,18,18.00
2021,04,17,11,19,17.90
2021,04,17,11,20,17.90
2021,04,17,11,21,17.90
2021,04,17,11,22,17.80
2021,04,17,11,23,17.80
2021,04,17,11,24,17.80
2021,04,17,11,25,17.80
2021,04,17,11,26,17.90
2021,04,17,11,27,18.00
2021,04,17,11,28,18.10
2021,04,17,11,29,18.20
2021,04,17,11,30,18.30
2021,04,17,11,31,18.30
2021,04,17,11,32,18.30
2021,04,17,11,33,18.30
2021,04,17,11,34,18.30
2021,04,17,11,35,18.30
2021,04,17,11,36,18.30
2021,04,17,11,37,18.30
2021,04,17,11,38,18.40
2021,04,17,11,39,18.50
2021,04,17,11,40,18.60
2021,04,17,11,41,18.80
2021,04,17,11,42,19.00
2021,04,17,11,43,19.10
2021,04,17,11,44,19.30
2021,04,17,11,45,19.40
2021,04,17,11,46,19.40
2021,04,17,11,47,19.30
2021,04,17,11,48,19.30
2021,04,17,11,49,19.40
2021,04,17,11,50,19.40
2021,04,17,11,51,19.40
2021,04,17,11,52,19.50
2021,04,17,11,53,19.50
2021,04,17,11,54,19.50
2021,04,17,11,55,19.60
2021,04,17,11,56,19.50
2021,04,17,11,57,19.40
2021,04,17,11,58,19.40
2021,04,17,11,59,19.50
2021,04,17,12,00,19.50
2021,04,17,12,01,19.60
2021,04,17,12,02,19.60
2021,04,17,12,03,19.60
2021,04,17,12,04,19.50
2021,04,17,12,05,19.50
2021,04,17,12,06,19.40
2021,04,17,12,07,19.30
2021,04,17,12,08,19.20
2021,04,17,12,09,19.20
2021,04,17,12,10,19.20
2021,04,17,12,11,19.20
2021,04,17,12,12,19.30
2021,04,17,12,13,19.40
2021,04,17,12,14,19.50
2021,04,17,12,15,19.50
2021,04,17,12,16,19.50
2021,04,17,12,17,19.40
2021,04,17,12,18,19.40
2021,04,17,12,19,19.30
2021,04,17,12,20,19.30
2021,04,17,12,21,19.30
2021,04,17,12,22,19.30
2021,04,17,12,23,19.30
2021,04,17,12,24,19.30
2021,04,17,12,25,19.30
2021,04,17,12,26,19.30
2021,04,17,12,27,19.20
2021,04,17,12,28,19.10
2021,04,17,12,29,19.20
2021,04,17,12,30,19.20
2021,04,17,12,31,19.30
2021,04,17,12,32,19.30
2021,04,17,12,33,19.40
2021,04,17,12,34,19.40
2021,04,17,12,35,19.40
2021,04,17,12,36,19.40
2021,04,17,12,37,19.40
2021,04,17,12,38,19.40
2021,04,17,12,39,19.50
2021,04,17,12,40,19.60
2021,04,17,12,41,19.60
2021,04,17,12,42,19.60
2021,04,17,12,43,19.60
2021,04,17,12,44,19.60
2021,04,17,12,45,19.60
2021,04,17,12,46,19.60
2021,04,17,12,47,19.60
2021,04,17,12,48,19.70
2021,04,17,12,49,19.70
2021,04,17,12,50,19.70
2021,04,17,12,51,19.80
2021,04,17,12,52,19.70
2021,04,17,12,53,19.70
2021,04,17,12,54,19.60
2021,04,17,12,55,19.60
2021,04,17,12,56,19.60
2021,04,17,12,57,19.60
2021,04,17,12,58,19.60
2021,04,17,12,59,19.70
2021,04,17,13,00,19.70
2021,04,17,13,01,19.70
2021,04,17,13,02,19.70
2021,04,17,13,03,19.70
2021,04,17,13,04,19.80
2021,04,17,13,05,19.80
2021,04,17,13,06,19.80
2021,04,17,13,07,19.80
2021,04,17,13,08,19.80
2021,04,17,13,09,19.80
2021,04,17,13,10,19.80
2021,04,17,13,11,19.80
2021,04,17,13,12,19.80
2021,04,17,13,13,19.80
2021,04,17,13,14,19.90
2021,04,17,13,15,19.90
2021,04,17,13,16,19.90
2021,04,17,13,17,20.00
2021,04,17,13,18,20.00
2021,04,17,13,19,20.10
2021,04,17,13,20,20.10
2021,04,17,13,21,20.20
2021,04,17,13,22,20.20
2021,04,17,13,23,20.30
2021,04,17,13,24,20.30
2021,04,17,13,25,20.30
2021,04,17,13,26,20.40
2021,04,17,13,27,20.40
2021,04,17,13,28,20.50
2021,04,17,13,29,20.50
2021,04,17,13,30,20.60
2021,04,17,13,31,20.60
2021,04,17,13,32,20.50
2021,04,17,13,33,20.50
2021,04,17,13,34,20.60
2021,04,17,13,35,20.60
2021,04,17,13,36,20.70
2021,04,17,13,37,20.80
2021,04,17,13,38,20.90
2021,04,17,13,39,20.90
2021,04,17,13,40,20.80
2021,04,17,13,41,20.80
2021,04,17,13,42,20.80
2021,04,17,13,43,20.80
2021,04,17,13,44,20.80
2021,04,17,13,45,20.70
2021,04,17,13,46,20.70
2021,04,17,13,47,20.70
2021,04,17,13,48,20.70
2021,04,17,13,49,20.70
2021,04,17,13,50,20.60
2021,04,17,13,51,20.60
2021,04,17,13,52,20.60
2021,04,17,13,53,20.50
2021,04,17,13,54,20.60
2021,04,17,13,55,20.60
2021,04,17,13,56,20.60
2021,04,17,13,57,20.60
2021,04,17,13,58,20.60
2021,04,17,13,59,20.60
2021,04,17,14,00,20.60
2021,04,17,14,01,20.70
2021,04,17,14,02,20.70
2021,04,17,14,03,20.80
2021,04,17,14,04,20.80
2021,04,17,14,05,20.90
2021,04,17,14,06,20.80
2021,04,17,14,07,20.80
2021,04,17,14,08,20.80
2021,04,17,14,09,20.90
2021,04,17,14,10,20.90
2021,04,17,14,11,20.90
2021,04,17,14,12,20.90
2021,04,17,14,13,20.90
2021,04,17,14,14,20.90
2021,04,17,14,15,20.90
2021,04,17,14,16,20.90
2021,04,17,14,17,20.90
2021,04,17,14,18,21.00
2021,04,17,14,19,20.90
2021,04,17,14,20,20.90
2021,04,17,14,21,20.90
2021,04,17,14,22,21.00
2021,04,17,14,23,21.00
2021,04,17,14,24,21.10
2021,04,17,14,25,21.20
2021,04,17,14,26,21.10
2021,04,17,14,27,21.10
2021,04,17,14,28,21.10
2021,04,17,14,29,21.10
2021,04,17,14,30,21.00
2021,04,17,14,31,20.90
2021,04,17,14,32,20.90
2021,04,17,14,33,20.90
2021,04,17,14,34,20.90
2021,04,17,14,35,20.90
2021,04,17,14,36,20.90
2021,04,17,14,37,21.00
2021,04,17,14,38,21.00
2021,04,17,14,39,21.00
2021,04,17,14,40,21.10
2021,04,17,14,41,21.10
2021,04,17,14,42,21.10
2021,04,17,14,43,21.20
2021,04,17,14,44,21.30
2021,04,17,14,45,21.30
2021,04,17,14,46,21.30
2021,04,17,14,47,21.40
2021,04,17,14,48,21.30
2021,04,17,14,49,21.20
2021,04,17,14,50,21.20
2021,04,17,14,51,21.20
2021,04,17,14,52,21.20
2021,04,17,14,53,21.30
2021,04,17,14,54,21.30
2021,04,17,14,55,21.30
2021,04,17,14,56,21.30
2021,04,17,14,57,21.20
2021,04,17,14,58,21.30
2021,04,17,14,59,21.30
2021,04,17,15,00,21.30
2021,04,17,15,01,21.30
2021,04,17,15,02,21.30
2021,04,17,15,03,21.30
2021,04,17,15,04,21.30
2021,04,17,15,05,21.30
2021,04,17,15,06,21.40
2021,04,17,15,07,21.40
2021,04,17,15,08,21.40
2021,04,17,15,09,21.30
2021,04,17,15,10,21.40
2021,04,17,15,11,21.30
2021,04,17,15,12,21.30
2021,04,17,15,13,21.30
2021,04,17,15,14,21.30
2021,04,17,15,15,21.40
2021,04,17,15,16,21.30
2021,04,17,15,17,21.30
2021,04,17,15,18,21.30
2021,04,17,15,19,21.30
2021,04,17,15,20,21.30
2021,04,17,15,21,21.40
2021,04,17,15,22,21.40
2021,04,17,15,23,21.50
2021,04,17,15,24,21.50
2021,04,17,15,25,21.60
2021,04,17,15,26,21.60
2021,04,17,15,27,21.60
2021,04,17,15,28,21.60
2021,04,17,15,29,21.60
2021,04,17,15,30,21.70
2021,04,17,15,31,21.70
2021,04,17,15,32,21.70
2021,04,17,15,33,21.60
2021,04,17,15,34,21.50
2021,04,17,15,35,21.50
2021,04,17,15,36,21.40
2021,04,17,15,37,21.50
2021,04,17,15,38,21.60
2021,04,17,15,39,21.70
2021,04,17,15,40,21.70
2021,04,17,15,41,21.80
2021,04,17,15,42,21.80
2021,04,17,15,43,21.80
2021,04,17,15,44,21.80
2021,04,17,15,45,21.80
2021,04,17,15,46,21.80
2021,04,17,15,47,21.80
2021,04,17,15,48,21.80
2021,04,17,15,49,21.90
2021,04,17,15,50,21.90
2021,04,17,15,51,21.90
2021,04,17,15,52,21.90
2021,04,17,15,53,21.90
2021,04,17,15,54,22.00
2021,04,17,15,55,22.00
2021,04,17,15,56,22.10
2021,04,17,15,57,22.10
2021,04,17,15,58,22.10
2021,04,17,15,59,22.00
2021,04,17,16,00,22.10
2021,04,17,16,01,22.10
2021,04,17,16,02,22.10
2021,04,17,16,03,22.20
2021,04,17,16,04,22.20
2021,04,17,16,05,22.20
2021,04,17,16,06,22.20
2021,04,17,16,07,22.20
2021,04,17,16,08,22.20
2021,04,17,16,09,22.20
2021,04,17,16,10,22.30
2021,04,17,16,11,22.30
2021,04,17,16,12,22.30
2021,04,17,16,13,22.30
2021,04,17,16,14,22.30
2021,04,17,16,15,22.20
2021,04,17,16,16,22.20
2021,04,17,16,17,22.20
2021,04,17,16,18,22.20
2021,04,17,16,19,22.20
2021,04,17,16,20,22.30
2021,04,17,16,21,22.30
2021,04,17,16,22,22.40
2021,04,17,16,23,22.40
2021,04,17,16,24,22.40
2021,04,17,16,25,22.40
2021,04,17,16,26,22.40
2021,04,17,16,27,22.40
2021,04,17,16,28,22.50
2021,04,17,16,29,22.50
2021,04,17,16,30,22.50
2021,04,17,16,31,22.60
2021,04,17,16,32,22.50
2021,04,17,16,33,22.50
2021,04,17,16,34,22.50
2021,04,17,16,35,22.50
2021,04,17,16,36,22.60
2021,04,17,16,37,22.60
2021,04,17,16,38,22.70
2021,04,17,16,39,22.70
2021,04,17,16,40,22.70
2021,04,17,16,41,22.80
2021,04,17,16,42,22.80
2021,04,17,16,43,22.70
2021,04,17,16,44,22.70
2021,04,17,16,45,22.70
2021,04,17,16,46,22.70
2021,04,17,16,47,22.70
2021,04,17,16,48,22.70
2021,04,17,16,49,22.70
2021,04,17,16,50,22.70
2021,04,17,16,51,22.70
2021,04,17,16,52,22.60
2021,04,17,16,53,22.70
2021,04,17,16,54,22.60
2021,04,17,16,55,22.70
2021,04,17,16,56,22.60
2021,04,17,16,57,22.60
2021,04,17,16,58,22.70
2021,04,17,16,59,22.70
2021,04,17,17,00,22.70
2021,04,17,17,01,22.70
2021,04,17,17,02,22.70
2021,04,17,17,03,22.70
2021,04,17,17,04,22.60
2021,04,17,17,05,22.70
2021,04,17,17,06,22.70
2021,04,17,17,07,22.70
2021,04,17,17,08,22.70
2021,04,17,17,09,22.80
2021,04,17,17,10,22.80
2021,04,17,17,11,22.80
2021,04,17,17,12,22.80
2021,04,17,17,13,22.80
2021,04,17,17,14,22.80
2021,04,17,17,15,22.90
2021,04,17,17,16,22.90
2021,04,17,17,17,22.90
2021,04,17,17,18,22.90
2021,04,17,17,19,22.90
2021,04,17,17,20,22.90
2021,04,17,17,21,22.90
2021,04,17,17,22,22.90
2021,04,17,17,23,22.90
2021,04,17,17,24,22.90
2021,04,17,17,25,22.90
2021,04,17,17,26,22.90
2021,04,17,17,27,22.90
2021,04,17,17,28,23.00
2021,04,17,17,29,23.00
2021,04,17,17,30,23.10